Regional Weather Roundup
Issued by NWS

Home | Current Version | Previous Version | Graphics & Text | Print | Product List | Glossary On
Versions: 1 2 3 4 5 6 7 8 9 10 11 12 13 14 15 16 17 18 19 20 21 22 23 24 25 26 27 28 29 30 31 32 33 34 35 36 37 38 39 40 41 42 43 44 45 46 47 48 49 50
000
ASUS43 KLMK 202002
RWRKY
KENTUCKY REGIONAL WEATHER ROUNDUP
NATIONAL WEATHER SERVICE LOUISVILLE KY
400 PM EDT FRI APR 20 2018

NOTE "FAIR" INDICATES FEW OR NO CLOUDS BELOW 12,000 FEET
WITH NO SIGNIFICANT WEATHER AND/OR OBSTRUCTIONS TO VISIBILITY.

KYZ001>023-026-027-061>063-070>075-202100-
WESTERN AND SOUTH CENTRAL KENTUCKY

CITY           SKY/WX    TMP DP  RH WIND       PRES   REMARKS
PADUCAH        FAIR      65  29  25 NE7       30.38F
HENDERSON      FAIR      62  28  27 N8        30.41F
OWENSBORO      FAIR      63  26  24 N9        30.40F
HOPKINSVILLE   FAIR      63  30  29 E13G18    30.37F
BOWLING GREEN  FAIR      64  29  26 MISG      30.39F
GLASGOW        NOT AVBL
$$

KYZ024-025-028>034-038-045-046-053-202100-
NORTH CENTRAL KENTUCKY

CITY           SKY/WX    TMP DP  RH WIND       PRES   REMARKS
LOUISVILLE/SDF FAIR      63  26  24 NE9       30.41F
LOUISVILLE/LOU FAIR      63  27  25 NE12G17   30.41F
FORT KNOX      FAIR      62  23  23 CALM      30.40F
$$

KYZ035>037-039>044-047>052-055>060-089>105-202100-
NORTHEAST KENTUCKY

CITY           SKY/WX    TMP DP  RH WIND       PRES   REMARKS
LEXINGTON      FAIR      60  27  28 NE8       30.41F
COVINGTON      FAIR      59  23  25 N8        30.43F
FRANKFORT      FAIR      61  24  24 NE8       30.40F
$$

KYZ054-064>069-076>088-106>120-202100-
SOUTHEAST KENTUCKY

CITY           SKY/WX    TMP DP  RH WIND       PRES   REMARKS
JACKSON        FAIR      60  21  22 VRB3      30.37F
LONDON         FAIR      61  24  24 VRB3      30.37F
SOMERSET       NOT AVBL
MIDDLESBORO    FAIR      65  25  22 W3        30.34F
MONTICELLO     FAIR      61  30  31 N13G24    30.39F
$$




USA.gov is the U.S. government's official web portal to all federal, state and local government web resources and services.